Skip to content
You are here: Gozo Weather
Gozo Weather Station for the very latest live weather conditions from Gozo and Malta
 
 TIME   TEMPERATURE   WINDSPEED   DIRECTION   HUMIDITY   BAROMETER   RAINFALL 
3:50 25.5°C (77.9°F) 13.0 kmh (8.1 mph) WSW 63% 1016.0hPa (30.00 inHg) 0.0mm (0.00 in.)
2:50 26.8°C (80.2 °F) 25.9 kmh (16.1 mph) WSW 59% 1017.0hPa (30.03 inHg) 0.0mm (0.00 in.)
1:50 28.3°C (82.9 °F) 18.5 kmh (11.5 mph) WSW 55% 1017.0hPa (30.03 inHg) 0.0mm (0.00 in.)
12:50 28.0°C (82.4 °F) 16.7 kmh (10.4 mph) WSW 51% 1016.0hPa (30.00 inHg) 0.0mm (0.00 in.)
11:50 26.8°C (80.2 °F) 16.7 kmh (10.4 mph) WSW 62% 1017.0hPa (30.03 inHg) 0.0mm (0.00 in.)
10:50 26.1°C (79.0 °F) 11.1 kmh (6.9 mph) WSW 68% 1017.0hPa (30.03 inHg) 0.0mm (0.00 in.)
9:50 24.6°C (76.3 °F) 16.7 kmh (10.4 mph) WSW 72% 1016.0hPa (30.00 inHg) 0.0mm (0.00 in.)
8:50 23.9°C (75.0 °F) 18.5 kmh (11.5 mph) WSW 75% 1016.0hPa (30.00 inHg) 0.0mm (0.00 in.)
7:50 23.1°C (73.6 °F) 14.8 kmh (9.2 mph) WSW 76% 1015.0hPa (29.97 inHg) 0.0mm (0.00 in.)
6:50 22.0°C (71.6 °F) 1.9 kmh (1.2 mph) WSW 74% 1015.0hPa (29.97 inHg) 0.0mm (0.00 in.)
5:50 22.0°C (71.6 °F) 9.3 kmh (5.8 mph) SW 74% 1015.0hPa (29.97 inHg) 0.0mm (0.00 in.)
4:50 22.0°C (71.6 °F) 11.1 kmh (6.9 mph) SW 74% 1015.0hPa (29.97 inHg) 0.0mm (0.00 in.)
3:50 22.3°C (72.1 °F) 1.9 kmh (1.2 mph) SW 73% 1015.0hPa (29.97 inHg) 0.0mm (0.00 in.)
2:50 22.3°C (72.1 °F) 13.0 kmh (8.1 mph) SW 73% 1014.0hPa (29.94 inHg) 0.0mm (0.00 in.)
1:50 22.4°C (72.3 °F) 3.7 kmh (2.3 mph) SW 72% 1014.0hPa (29.94 inHg) 0.0mm (0.00 in.)
12:50 22.7°C (72.9 °F) 11.1 kmh (6.9 mph) SW 71% 1015.0hPa (29.97 inHg) 0.0mm (0.00 in.)
11:50 22.8°C (73.0 °F) 1.9 kmh (1.2 mph) N 71% 1016.0hPa (30.00 inHg) 0.0mm (0.00 in.)
10:50 22.8°C (73.0 °F) 13.0 kmh (8.1 mph) NNW 69% 1016.0hPa (30.00 inHg) 0.0mm (0.00 in.)
9:42 23.5°C (74.3 °F) 0.0 kmh (0.0 mph) WNW 68% 1016.0hPa (30.00 inHg) 0.0mm (0.00 in.)
8:42 23.9°C (75.0 °F) 13.0 kmh (8.1 mph) W 62% 1015.0hPa (29.97 inHg) 0.0mm (0.00 in.)
7:42 25.0°C (77.0 °F) 13.0 kmh (8.1 mph) WSW 58% 1015.0hPa (29.97 inHg) 0.0mm (0.00 in.)
6:42 25.3°C (77.5 °F) 13.0 kmh (8.1 mph) WSW 50% 1014.0hPa (29.94 inHg) 0.0mm (0.00 in.)
5:42 26.4°C (79.5 °F) 16.7 kmh (10.4 mph) W 44% 1014.0hPa (29.94 inHg) 0.0mm (0.00 in.)
4:42 27.0°C (80.6 °F) 14.8 kmh (9.2 mph) W 41% 1015.0hPa (29.97 inHg) 0.0mm (0.00 in.)

You need the latest version of Flash Player to view some of our content.


Why not download and install the latest version now?
It will only take you a moment and will ensure that you can view all the latest flash designed websites.

Translate this page

Animated Satellite

Click per aprire http://www.gozo.ws/Animation.php
copyright 2016 EUMETSAT

European Lightning Activity


Please click image for full size

Sponsored Links